Location: ??????
(55.6361°N, 38.0803°E)
Time: 10:24:38
(UTC+00:00)

SL-16 R/B - Visible Passes

Search period start: 03 August 2020 00:00
Search period end: 13 August 2020 00:00
Orbit: 985 x 1006 km, 99.5° (Epoch: 02 August)

Date Brightness Start Highest point End Pass type
(mag) Time Alt. Az. Time Alt. Az. Time Alt. Az.
03 Aug 3.5 00:08:14 12° SSW 00:13:08 30° W 00:18:36 10° NNW visible
03 Aug 5.1 19:33:22 10° NE 19:34:57 11° NNE 19:36:32 10° NNE visible
03 Aug 4.2 21:11:27 10° ESE 21:16:44 30° NE 21:22:01 10° N visible
03 Aug 2.5 22:54:30 15° SSE 22:59:50 81° WSW 23:06:09 10° NNW visible
04 Aug 4.0 00:40:01 10° SW 00:44:26 20° W 00:48:53 10° NW visible
04 Aug 4.9 20:01:57 10° ENE 20:05:07 15° NE 20:08:17 10° N visible
04 Aug 3.6 21:41:28 10° SE 21:47:16 42° ENE 21:53:05 10° N visible
04 Aug 2.8 23:25:53 16° S 23:30:48 54° W 23:36:57 10° NNW visible
05 Aug 4.7 20:31:08 10° E 20:35:23 19° NE 20:39:37 10° N visible
05 Aug 3.0 22:12:08 12° SE 22:17:55 61° ENE 22:24:06 10° NNW visible
05 Aug 3.3 23:57:15 15° SSW 00:01:53 35° W 00:07:36 10° NNW visible
06 Aug 4.3 21:00:43 10° ESE 21:05:45 26° NE 21:10:48 10° N visible
06 Aug 2.6 22:43:31 16° SSE 22:48:43 88° ENE 22:55:01 10° NNW visible
07 Aug 3.8 00:28:37 11° SW 00:33:08 23° W 00:38:01 10° NW visible
07 Aug 5.0 19:51:32 10° ENE 19:54:13 13° NNE 19:56:54 10° N visible
07 Aug 3.8 21:30:36 10° ESE 21:36:14 37° NE 21:41:53 10° N visible
07 Aug 2.6 23:14:53 18° S 23:19:37 63° WSW 23:25:51 10° NNW visible
08 Aug 4.2 01:01:11 10° WSW 01:04:31 15° W 01:07:52 10° NW visible
08 Aug 4.8 20:20:34 10° ENE 20:24:27 17° NE 20:28:20 10° N visible
08 Aug 3.2 22:01:10 12° SE 22:06:51 53° ENE 22:12:55 10° NNW visible
08 Aug 3.1 23:46:15 17° SSW 23:50:39 41° W 23:56:34 10° NNW visible
09 Aug 4.5 20:50:01 10° E 20:54:47 24° NE 20:59:33 10° N visible
09 Aug 2.7 22:32:32 17° SSE 22:37:35 78° ENE 22:43:52 10° NNW visible
10 Aug 3.6 00:17:38 14° SW 00:21:50 27° W 00:27:05 10° NW visible
10 Aug 5.0 19:41:14 10° NE 19:43:20 12° NNE 19:45:26 10° N visible
10 Aug 4.0 21:19:47 10° ESE 21:25:14 33° NE 21:30:41 10° N visible
10 Aug 2.5 23:03:54 20° S 23:08:27 72° WSW 23:14:44 10° NNW visible
11 Aug 4.1 00:49:11 10° SW 00:53:11 17° W 00:57:12 10° NW visible
11 Aug 4.9 20:10:03 10° ENE 20:13:32 16° NE 20:17:01 10° N visible
11 Aug 3.4 21:50:11 11° SE 21:55:48 46° ENE 22:01:44 10° N visible
11 Aug 2.9 23:35:17 20° SSW 23:39:27 48° W 23:45:30 10° NNW visible
12 Aug 4.6 20:39:21 10° E 20:43:49 21° NE 20:48:18 10° N visible
12 Aug 2.8 22:21:34 17° SE 22:26:30 68° ENE 22:32:42 10° NNW visible
